Weather History for KPVU - September, 2013

Change the Weather History Date:

Wednesday, September 4, 2013

  Actual Average Record
Temperature  
Mean Temperature 74 °F -  
Max Temperature 87 °F 79 °F 93 °F (2002)
Min Temperature 60 °F 52 °F 42 °F (1999)
Cooling Degree Days 8    
Growing Degree Days 24 (Base 50)    
Moisture  
Dew Point 58 °F    
Average Humidity 70    
Maximum Humidity 88    
Minimum Humidity 31    
Precipitation  
Precipitation 0.00 in - - ()
Sea Level Pressure  
Sea Level Pressure 30.20 in    
Wind  
Wind Speed 5 mph (SE)    
Max Wind Speed 17 mph    
Max Gust Speed 17 mph    
Visibility 12 miles    
Events      
Averages and records for this station are not official NWS values.
T = Trace of Precipitation, MM = Missing Value Source: NWS Daily Summary

Daily Weather History Graph

Daily Weather History Graph

Search for Another Location

Airport or City:

Trip Planner

Search our weather history database for the weather conditions in past years. The results will help you decide how hot, cold, wet, or windy it might be!

Date:

Astronomy

Sep. 04, 2013 Rise Set
Actual Time 6:57 AM MDT 7:53 PM MDT
Civil Twilight 6:29 AM MDT 8:20 PM MDT
Nautical Twilight 5:56 AM MDT 8:53 PM MDT
Astronomical Twilight 5:22 AM MDT 9:27 PM MDT
Moon 6:13 AM MDT (9/4) 7:14 PM MDT (9/4)
Length of Visible Light 13h 51m
Length of Day
12h 55m
Waning Crescent, 1% of the Moon is Illuminated
Sep 4
Waning Crescent
Sep 5
New
Sep 12
First Quarter
Sep 19
Full
Sep 26
Last Quarter

Hourly Weather History & Observations

Time (MDT) Temp. Heat Index Dew Point Humidity Pressure Visibility Wind Dir Wind Speed Gust Speed Precip Events Conditions
12:15 AM 66.2 °F - 62.6 °F 88% 30.19 in 10.0 mi ESE 3.5 mph - N/A   Clear
12:35 AM 64.4 °F - 60.8 °F 88% 30.18 in 10.0 mi Calm Calm - N/A   Clear
12:55 AM 64.4 °F - 60.8 °F 88% 30.19 in 10.0 mi East 5.8 mph - N/A   Clear
1:15 AM 66.2 °F - 59.0 °F 78% 30.19 in 10.0 mi ESE 4.6 mph - N/A   Clear
1:35 AM 64.4 °F - 59.0 °F 83% 30.19 in 10.0 mi East 3.5 mph - N/A   Clear
1:55 AM 62.6 °F - 59.0 °F 88% 30.19 in 10.0 mi East 6.9 mph - N/A   Clear
2:15 AM 64.4 °F - 57.2 °F 77% 30.19 in 10.0 mi East 5.8 mph - N/A   Clear
2:35 AM 64.4 °F - 57.2 °F 77% 30.19 in 10.0 mi East 5.8 mph - N/A   Clear
2:55 AM 62.6 °F - 57.2 °F 82% 30.19 in 10.0 mi ESE 6.9 mph - N/A   Clear
3:15 AM 62.6 °F - 57.2 °F 82% 30.19 in 10.0 mi ESE 6.9 mph - N/A   Clear
3:35 AM 64.4 °F - 59.0 °F 83% 30.20 in 10.0 mi SE 6.9 mph - N/A   Clear
3:55 AM 64.4 °F - 59.0 °F 83% 30.20 in 10.0 mi SSE 6.9 mph - N/A   Clear
4:15 AM 62.6 °F - 59.0 °F 88% 30.21 in 10.0 mi SSE 5.8 mph - N/A   Clear
4:35 AM 62.6 °F - 59.0 °F 88% 30.21 in 10.0 mi East 4.6 mph - N/A   Clear
4:55 AM 60.8 °F - 57.2 °F 88% 30.21 in 10.0 mi East 3.5 mph - N/A   Clear
5:15 AM 62.6 °F - 57.2 °F 82% 30.21 in 10.0 mi ESE 4.6 mph - N/A   Clear
5:35 AM 62.6 °F - 55.4 °F 77% 30.22 in 10.0 mi Calm Calm - N/A   Clear
5:55 AM 62.6 °F - 55.4 °F 77% 30.22 in 10.0 mi South 6.9 mph - N/A   Clear
6:15 AM 62.6 °F - 55.4 °F 77% 30.22 in 10.0 mi Calm Calm - N/A   Clear
6:35 AM 62.6 °F - 55.4 °F 77% 30.22 in 10.0 mi Calm Calm - N/A   Clear
6:50 AM 60.8 °F - 55.4 °F 82% 30.22 in 15.0 mi Calm Calm - N/A   Partly Cloudy
7:50 AM 60.8 °F - 55.4 °F 82% 30.24 in 15.0 mi SE 5.8 mph - N/A   Partly Cloudy
8:50 AM 66.2 °F - 57.2 °F 73% 30.24 in 15.0 mi SSE 5.8 mph - N/A   Partly Cloudy
10:50 AM 73.4 °F - 60.8 °F 65% 30.26 in 15.0 mi WSW 5.8 mph - N/A   Partly Cloudy
11:50 AM 75.2 °F - 60.8 °F 61% 30.25 in 15.0 mi West 5.8 mph - N/A   Partly Cloudy
12:50 PM 78.8 °F - 59.0 °F 51% 30.23 in 15.0 mi WSW 5.8 mph - N/A   Partly Cloudy
2:50 PM 86.0 °F 86.1 °F 60.8 °F 43% 30.19 in 15.0 mi Variable 5.8 mph - N/A   Mostly Cloudy
3:50 PM 84.2 °F 84.4 °F 60.8 °F 45% 30.17 in 15.0 mi Variable 5.8 mph - N/A   Mostly Cloudy
5:50 PM 87.8 °F 85.7 °F 53.6 °F 31% 30.13 in 15.0 mi ESE 11.5 mph 17.3 mph N/A   Mostly Cloudy
6:59 PM 82.4 °F 82.0 °F 57.2 °F 42% 30.14 in 15.0 mi Variable 3.5 mph - N/A   Mostly Cloudy
7:57 PM 77.0 °F - 60.8 °F 57% 30.15 in 15.0 mi Variable 3.5 mph - N/A   Mostly Cloudy
9:15 PM 75.2 °F - 60.8 °F 61% 30.17 in 10.0 mi SSE 5.8 mph - N/A   Clear
9:35 PM 73.4 °F - 60.8 °F 65% 30.17 in 10.0 mi SSE 5.8 mph - N/A   Clear
9:55 PM 73.4 °F - 57.2 °F 57% 30.18 in 10.0 mi Calm Calm - N/A   Clear
9:58 PM 75.2 °F - 62.6 °F 65% 30.16 in 15.0 mi Variable 3.5 mph - N/A   Mostly Cloudy
10:15 PM 75.2 °F - 57.2 °F 53% 30.19 in 10.0 mi SSW 4.6 mph - N/A   Clear
10:35 PM 73.4 °F - 57.2 °F 57% 30.20 in 10.0 mi South 10.4 mph - N/A   Clear
10:55 PM 73.4 °F - 55.4 °F 53% 30.19 in 10.0 mi Calm Calm - N/A   Clear
11:15 PM 71.6 °F - 57.2 °F 60% 30.20 in 10.0 mi ESE 9.2 mph - N/A   Mostly Cloudy
11:35 PM 71.6 °F - 57.2 °F 60% 30.16 in 10.0 mi ENE 17.3 mph - N/A   Overcast
11:55 PM 73.4 °F - 55.4 °F 53% 30.17 in 10.0 mi SW 6.9 mph - N/A   Scattered Clouds